Location: Baia Mare
(47.6567°N, 23.5850°E)
Time: 20:16:47
(UTC+03:00)

ISS - Pass Details

Date: 03 June 2018
Orbit: 403 x 408 km, 51.6° (Epoch: 21 September)

Event Time Altitude Azimuth Distance (km) Brightness Sun altitude
Rises 23:07:14 0° 291° (WNW) 2,329 1.0 -13.5°
Reaches altitude 10° 23:09:25 10° 283° (WNW) 1,464 -0.3 -13.7°
Maximum altitude 23:12:27 36° 215° (SW) 656 -3.0 -14.0°
Enters shadow 23:13:32 27° 173° (S) 802 -2.9 -14.1°
